Temperature
15 15 16 16 17 17 18 20 22 22 23 23 23 23 22 20 20 18 16 16 16 16 16 16 16 16 16 16 17 17 17 17 16 16 16 16 16 16 16 16 16 15 15 15 15 15 15 15 15
15 15 16 17 17 17 19 20 21 21 22 22 22 22 21 19 18 16 16 15 15 16 16 16 16 16 16 16 16 16 16 16 16 16 16 16 16 16 16 16 16 15 15 15 15 15 15 15 15
14 15 16 17 17 18 19 20 21 21 21 21 21 20 20 18 17 16 15 15 15 15 16 16 16 16 16 16 16 16 16 16 16 16 16 16 16 16 16 16 15 15 15 15 15 15 15 15 15
14 15 16 16 17 19 20 20 20 20 21 21 20 19 18 16 16 15 15 15 14 15 15 15 15 16 16 16 16 16 16 16 16 16 16 16 16 16 16 16 15 15 15 15 15 15 15 15 15
14 15 15 16 17 19 19 20 20 20 20 20 20 18 16 15 15 15 15 14 14 14 15 15 15 15 15 15 15 15 16 16 16 16 16 16 16 16 16 16 15 15 15 15 15 15 15 15 15
14 15 15 16 17 18 19 19 20 19 19 19 19 17 15 15 15 15 14 14 14 14 14 14 15 15 15 15 15 15 15 15 15 15 15 15 16 15 15 15 15 15 15 15 15 15 15 15 15
14 14 15 16 17 18 18 19 19 18 18 18 18 17 15 14 14 14 14 14 14 14 14 14 14 14 15 15 15 15 15 15 15 15 15 15 15 15 15 15 15 15 15 15 15 15 15 14 14
13 14 15 16 16 17 18 18 18 18 17 17 17 15 14 13 14 14 13 13 13 13 13 13 13 14 14 14 14 14 14 14 15 15 15 15 15 15 15 15 15 15 15 14 14 14 14 14 14
13 13 13 15 16 16 17 17 17 16 16 16 16 15 14 13 13 13 13 13 13 13 13 13 13 13 13 14 14 14 14 14 14 14 15 15 15 15 14 14 14 14 14 14 14 14 14 14 13
13 12 13 15 16 15 15 15 15 15 15 15 14 13 13 13 12 12 12 12 12 12 12 12 13 13 13 13 13 13 14 14 14 14 14 14 14 14 14 14 14 14 14 14 13 13 13 13 13
12 12 13 14 15 14 14 14 15 15 14 14 13 12 12 12 12 12 12 12 12 12 12 12 12 12 13 13 13 13 13 13 13 14 14 14 14 14 14 14 14 13 13 13 13 13 13 13 13
12 12 13 13 13 13 13 13 14 14 14 13 13 12 12 11 11 11 11 11 11 11 12 12 12 12 12 12 12 12 13 13 13 13 13 13 13 13 13 13 13 13 13 13 13 13 13 12 12
11 12 12 13 13 12 12 12 13 13 13 13 13 12 12 11 11 11 11 11 11 11 11 11 11 12 12 12 12 12 12 12 12 13 13 13 13 13 13 13 13 13 13 13 13 12 12 12 12
11 11 12 12 12 12 12 12 12 12 12 12 12 12 11 11 11 11 10 10 10 11 11 11 11 11 11 11 11 11 11 12 12 12 12 13 13 13 13 13 13 13 13 12 12 12 12 12 12
11 11 11 12 12 12 12 11 11 11 12 11 12 11 11 11 11 10 10 10 10 10 10 10 11 11 11 11 11 11 11 11 11 12 12 12 12 12 12 12 12 12 12 12 12 12 12 12 12
11 10 10 12 12 12 11 9 11 11 11 11 11 11 11 11 10 10 10 10 10 10 10 10 10 10 10 10 10 11 11 11 11 11 11 12 12 12 12 12 12 12 12 12 12 12 12 11 11
10 9 10 11 12 12 11 10 11 11 11 11 11 11 10 10 10 9 9 9 9 9 9 9 10 10 10 10 10 10 10 10 10 11 11 11 11 11 11 11 11 12 12 11 11 11 11 11 11
9 10 10 10 12 11 10 9 10 10 11 10 10 10 10 10 9 9 9 9 9 9 9 9 9 9 9 9 10 10 10 10 10 10 10 11 11 11 11 11 11 11 11 11 11 11 11 11 11
10 10 9 10 11 11 10 9 10 10 10 10 10 10 9 9 9 8 9 9 9 9 9 9 9 9 9 9 9 9 9 9 10 10 10 10 10 11 11 11 11 11 11 11 11 11 11 10 10
10 9 9 10 11 10 9 9 10 10 10 9 9 9 9 9 8 8 8 8 8 8 8 8 9 9 9 9 9 9 9 9 9 9 9 9 10 10 10 10 10 10 10 10 10 10 10 10 10
9 9 9 9 9 10 9 9 9 10 9 9 9 9 8 8 8 8 8 8 8 8 8 8 8 8 8 8 8 8 8 8 9 9 9 9 9 9 9 10 10 10 10 10 10 10 10 10 10
9 10 9 9 8 8 9 8 9 9 9 9 8 8 8 8 8 7 7 7 7 7 7 7 7 7 8 8 8 8 8 8 8 8 8 8 9 9 9 9 9 9 9 9 10 10 10 9 9
9 9 9 9 8 8 9 8 8 9 8 8 8 8 7 7 7 7 7 7 7 7 7 7 7 7 7 7 7 7 7 7 7 7 7 8 8 8 8 8 9 9 9 9 9 9 9 9 9
9 9 9 9 8 7 8 8 8 8 8 8 8 8 7 7 7 7 7 7 7 7 6 6 6 7 7 7 7 7 7 7 7 7 7 7 8 8 8 8 8 8 8 8 8 8 8 8 8
8 7 7 7 7 7 9 9 7 8 8 8 8 7 7 7 6 6 6 6 6 6 6 6 6 6 6 6 6 6 6 6 6 7 7 7 7 7 7 8 8 8 8 8 8 8 8 7 7
7 7 6 7 7 8 8 8 8 8 8 8 8 7 7 6 6 6 6 6 6 6 6 5 6 6 6 6 6 6 6 6 6 6 6 6 7 7 7 7 7 7 7 7 7 7 7 7 7
7 7 7 7 7 7 7 8 8 8 7 8 7 7 6 6 6 6 5 5 6 6 6 5 5 5 5 5 5 5 5 5 5 6 6 6 6 6 6 6 6 7 7 7 7 7 7 6 6
7 7 6 6 6 7 7 8 7 6 6 7 6 6 6 5 5 5 5 5 5 5 5 5 5 5 5 5 5 5 5 5 5 5 5 5 6 6 6 6 6 6 6 6 6 6 6 6 6
6 6 6 6 7 6 6 6 7 6 6 6 6 6 5 5 4 4 4 5 5 5 5 5 5 5 5 5 5 5 5 5 5 5 5 5 5 5 5 6 6 6 5 6 6 6 5 5 5
6 6 5 5 5 6 5 5 7 6 6 5 5 5 5 4 4 4 4 4 4 4 4 4 4 4 4 4 4 4 4 4 4 4 4 5 5 5 5 5 5 5 5 5 5 5 5 5 5
Wind_Speed
13 13 7 3 3 5 9 7 4 3 3 1 3 3 2 3 3 6 4 5 8 8 9 8 8 8 8 8 8 8 8 9 9 9 9 9 10 9 10 10 10 10 10 10 11 11 11 11 11
12 9 5 4 5 8 8 7 6 3 1 2 3 3 3 3 6 7 4 6 8 9 9 8 8 8 8 8 8 8 8 8 9 9 9 9 9 9 9 9 9 9 10 10 10 11 10 10 10
11 8 4 3 6 10 7 3 3 1 0 1 2 3 2 3 5 4 5 7 8 8 9 9 9 8 8 8 8 8 8 8 8 9 9 8 9 8 9 9 9 9 9 9 10 10 10 10 10
4 3 4 5 11 11 7 3 1 1 0 1 1 1 2 5 4 4 5 6 8 8 9 9 9 8 8 8 8 8 8 8 8 8 9 8 8 8 8 9 9 9 9 9 9 9 9 9 9
3 4 5 8 13 9 5 4 2 1 2 1 1 0 2 4 6 6 5 6 6 7 9 9 9 8 8 8 8 8 9 9 8 8 8 8 8 8 8 9 9 8 8 8 8 8 8 9 8
3 4 6 10 11 8 5 5 3 1 1 1 0 1 2 4 5 5 4 5 6 7 8 9 8 9 8 8 8 8 9 9 9 8 7 7 8 8 8 9 9 8 8 8 8 8 8 7 7
3 4 7 10 9 7 6 4 4 2 2 1 2 1 3 3 3 4 5 6 7 7 7 7 8 8 8 8 8 8 8 9 9 8 7 6 6 7 7 8 8 8 8 7 7 7 7 6 6
3 3 7 9 8 8 4 3 3 3 2 1 2 0 2 4 2 3 5 6 6 6 6 6 7 7 7 7 8 8 8 8 8 8 7 6 6 6 7 7 7 7 7 6 6 5 6 6 5
4 4 7 8 7 6 3 3 3 3 1 2 3 2 3 6 3 4 5 5 5 5 5 5 6 6 6 6 6 7 7 7 7 7 7 5 5 5 5 6 7 7 6 6 5 4 5 5 4
2 4 7 7 5 4 4 5 4 2 2 2 2 6 6 5 4 3 4 5 4 4 4 4 5 5 5 5 5 5 5 5 5 5 5 4 4 4 4 6 7 6 6 5 4 4 4 3 3
3 5 6 7 4 4 5 6 4 4 4 3 2 4 4 4 3 3 3 4 4 4 3 4 4 4 4 4 4 3 4 3 4 4 4 4 5 4 4 4 4 4 4 2 3 3 2 2 2
4 6 7 7 5 4 5 6 5 5 3 1 2 5 5 4 3 2 2 3 4 4 3 3 4 4 3 3 3 3 3 3 3 3 4 4 3 3 2 2 3 3 2 1 0 1 2 2 2
4 6 6 6 4 3 3 6 5 5 2 1 2 3 4 3 3 3 2 3 4 4 3 3 3 3 3 2 2 3 2 3 3 4 4 4 3 2 2 2 3 3 2 1 1 1 1 1 2
4 5 6 5 4 4 4 7 6 6 1 1 3 3 2 3 4 4 3 3 4 3 3 3 3 3 3 2 2 3 3 4 4 4 4 5 5 3 3 3 2 2 2 1 1 2 1 1 1
4 4 5 4 4 3 3 5 6 6 2 3 4 4 3 3 3 4 3 3 3 4 4 4 3 4 3 3 3 3 4 4 4 4 5 5 5 4 4 2 2 2 2 2 2 3 2 1 1
4 3 3 4 4 3 3 6 4 2 2 3 3 4 4 3 3 3 3 3 4 4 4 3 3 4 3 2 2 3 4 4 4 5 5 5 5 5 4 3 2 3 3 3 1 1 1 1 1
2 2 3 4 3 3 4 4 2 2 2 3 3 2 2 2 3 3 4 4 4 4 4 3 3 3 3 3 2 3 4 4 5 5 5 5 5 5 5 3 3 4 3 2 1 1 1 1 1
2 2 4 4 3 3 3 3 3 2 2 3 2 1 2 2 2 3 3 4 4 4 4 4 3 3 3 3 2 3 3 4 5 5 5 5 5 6 5 3 4 4 2 1 1 1 1 1 1
3 3 5 5 4 3 2 2 2 1 1 2 2 2 3 2 3 3 4 4 4 4 4 4 3 3 3 2 1 2 2 2 2 4 5 5 5 5 5 3 3 2 1 1 1 1 1 1 1
3 4 4 3 3 3 1 1 1 1 1 0 1 2 2 3 2 2 4 3 3 3 3 3 3 3 3 2 1 1 1 2 2 3 4 5 5 5 4 3 2 2 1 2 2 2 1 1 1
4 3 4 4 5 2 1 2 1 2 3 2 1 1 1 3 2 1 3 3 3 3 3 3 2 3 2 3 2 2 3 3 3 3 2 4 5 4 4 3 3 2 2 1 1 2 1 0 0
3 3 4 4 3 2 1 1 1 2 2 2 2 1 1 2 2 2 2 3 2 2 3 3 3 3 2 3 3 3 3 2 1 1 1 2 4 4 4 4 3 3 2 2 1 1 1 1 1
3 5 6 6 3 1 2 2 2 2 1 1 1 2 2 2 2 2 2 2 2 2 3 2 2 3 3 3 3 3 2 2 2 2 2 2 3 3 3 3 3 2 2 2 2 1 1 1 1
4 4 4 3 1 1 3 2 1 1 1 0 1 2 1 2 2 2 2 3 2 3 3 2 2 2 2 3 3 3 3 2 2 2 2 1 1 2 3 3 2 2 2 2 2 1 1 1 1
3 2 1 1 1 2 1 1 1 1 2 2 2 2 1 1 1 2 2 2 2 2 2 2 2 2 2 2 2 2 2 2 2 1 1 1 1 1 1 2 1 1 1 2 2 1 1 1 1
3 1 0 1 1 2 1 2 1 2 3 3 3 3 2 2 1 1 1 1 1 2 2 1 2 2 2 2 2 2 1 1 1 1 0 0 0 0 1 1 1 1 1 2 2 1 1 1 1
2 1 2 2 2 1 3 2 1 4 5 4 4 4 3 2 2 1 1 1 1 1 1 2 2 2 2 2 1 2 1 1 1 1 1 1 1 1 1 1 1 1 1 1 1 1 1 0 0
3 2 1 1 1 1 2 1 1 1 2 3 3 3 3 3 3 3 2 1 0 1 1 2 2 2 2 2 1 1 1 1 1 1 1 1 1 1 1 1 0 0 1 1 0 1 1 1 1
1 1 2 2 2 1 2 1 3 2 2 3 3 3 3 3 3 3 3 2 1 1 2 2 2 2 2 2 1 1 1 1 1 0 1 1 1 1 0 1 0 0 0 0 0 1 1 1 1
1 1 0 1 3 2 1 2 1 3 3 4 4 4 4 3 3 2 2 2 2 1 1 1 2 2 1 1 1 1 1 1 1 1 1 1 1 1 1 1 0 0 0 1 1 1 1 1 1
Wind_Direction
295 278 260 247 234 225 235 238 247 257 249 326 2 351 7 9 34 107 128 89 91 102 106 104 93 90 99 106 106 106 119 122 121 118 117 112 109 106 103 102 99 96 93 91 90 88 87 84 80
289 282 262 234 229 224 231 227 237 262 312 24 14 5 5 58 68 99 101 92 95 98 102 102 91 87 93 103 103 102 109 122 124 123 120 114 111 110 107 105 102 98 93 89 90 89 89 88 84
275 269 251 230 227 228 227 198 200 222 82 16 353 354 2 51 78 90 97 103 97 97 99 98 93 88 88 96 105 103 100 110 124 126 123 117 113 112 110 106 102 98 95 91 91 92 92 91 87
275 243 235 232 231 237 244 236 182 278 229 92 84 61 64 35 65 88 100 102 104 102 98 101 96 90 88 91 100 102 100 96 108 123 124 122 119 116 114 111 105 101 97 95 94 95 93 92 88
254 236 217 226 237 242 255 272 221 231 245 171 144 146 65 59 81 98 99 97 101 102 98 105 100 92 89 88 91 97 98 96 93 105 121 125 122 120 120 115 109 106 102 100 98 98 97 95 91
256 236 218 225 235 237 241 271 274 243 279 282 253 207 107 92 83 96 97 94 92 98 99 105 102 95 90 86 88 93 97 94 90 91 108 123 128 124 122 119 114 111 107 105 103 103 102 99 94
263 251 233 235 240 241 236 257 268 249 250 272 313 267 130 101 82 96 95 94 91 95 99 100 102 99 93 86 87 88 96 96 92 87 91 108 125 128 125 121 118 114 112 108 105 107 107 105 102
282 272 243 240 242 249 252 265 274 294 285 321 343 149 145 127 104 90 91 92 94 94 94 95 92 93 93 89 88 89 92 97 94 89 85 91 110 127 126 118 121 120 117 114 113 117 117 117 117
277 245 241 243 245 259 293 315 314 322 328 348 12 37 104 124 116 101 103 96 93 95 98 87 83 80 83 90 91 92 95 99 96 92 87 88 99 112 117 122 120 125 122 120 125 135 137 134 142
257 244 253 270 270 291 322 320 312 294 283 300 36 70 99 119 122 120 128 123 113 102 102 96 82 74 74 80 86 90 90 96 99 92 87 70 74 92 115 130 128 129 132 133 144 154 158 152 155
258 258 274 287 300 314 308 299 288 260 261 253 156 118 117 135 142 134 129 132 119 103 86 87 92 76 66 66 74 79 83 84 90 89 78 73 79 85 104 122 130 136 135 138 161 174 175 141 121
265 282 280 282 302 307 300 297 292 275 274 258 146 147 146 150 155 150 134 114 101 90 80 80 83 84 74 70 67 79 78 70 75 80 78 62 58 58 66 101 115 112 98 63 67 182 128 124 120
258 271 283 294 309 302 300 285 286 283 288 215 135 127 151 154 153 145 124 107 102 90 70 58 74 83 70 69 59 67 70 68 72 71 73 72 65 65 58 60 77 84 70 42 4 39 97 108 95
266 273 280 286 296 288 275 281 279 272 248 160 156 163 172 165 156 141 132 117 108 95 74 61 51 60 58 47 57 60 64 76 80 67 64 70 65 54 57 68 57 65 66 32 16 32 45 67 68
247 259 276 262 252 249 281 284 257 252 216 217 190 178 187 175 149 136 138 132 119 104 84 63 54 47 51 41 42 50 58 64 69 69 67 67 63 57 56 67 70 47 48 54 45 39 36 59 56
245 254 271 263 231 230 245 258 261 231 202 227 220 187 183 166 136 119 114 114 108 101 89 68 54 51 51 52 48 51 58 57 58 69 66 66 64 56 56 53 65 44 40 39 67 100 62 57 53
221 261 269 282 226 222 232 254 262 283 225 221 226 176 151 125 101 101 111 114 108 106 100 81 61 56 50 48 62 61 62 61 56 56 60 58 61 58 57 53 48 50 51 42 31 82 94 86 55
267 273 283 282 272 255 246 258 283 247 242 220 216 171 139 123 101 95 99 107 114 111 107 99 75 54 52 46 64 60 53 57 59 51 48 53 52 50 50 54 47 49 76 70 40 27 74 105 102
288 273 276 286 300 304 238 254 292 20 237 235 204 166 141 134 93 88 89 96 108 103 106 107 92 66 63 60 66 74 55 55 57 52 48 50 55 49 47 46 47 40 94 108 102 44 81 94 94
298 281 286 305 346 323 253 264 259 216 208 231 173 143 125 117 105 101 101 100 105 108 109 108 104 93 79 68 55 109 101 82 70 55 51 49 55 53 48 44 42 22 56 84 86 91 59 72 82
285 279 297 318 330 276 231 276 145 113 89 51 20 102 114 128 138 114 125 123 106 108 104 94 98 92 79 71 70 74 63 56 53 51 48 47 56 53 47 38 35 20 32 76 84 94 98 149 77
283 311 303 286 309 280 301 279 255 133 83 37 6 34 47 102 119 109 100 111 117 111 103 96 91 82 73 83 91 92 89 80 48 59 57 42 58 54 48 44 41 31 18 15 48 76 68 124 171
298 311 288 267 268 303 262 226 267 131 80 10 22 47 37 63 92 86 81 109 104 105 104 106 101 87 76 75 92 98 87 63 63 64 62 48 49 52 49 46 42 33 13 3 360 41 59 90 142
313 307 284 260 228 259 231 205 273 145 199 230 90 74 48 47 73 75 58 80 83 98 99 105 110 94 84 75 80 87 88 74 76 71 60 42 45 39 38 45 43 31 22 14 359 6 39 67 88
345 11 6 344 228 238 176 177 246 130 92 101 122 109 84 64 67 74 66 73 75 98 98 109 119 107 94 80 69 65 79 99 103 87 73 52 31 18 359 29 28 35 28 20 4 9 8 18 42
295 341 198 264 247 302 342 231 182 84 83 93 105 104 86 71 75 74 79 89 87 106 118 120 118 104 94 90 77 64 50 70 73 57 36 25 331 318 0 21 8 10 25 11 0 342 327 10 5
322 296 297 288 269 244 230 180 86 53 57 58 69 71 60 43 36 59 82 94 106 103 122 139 133 108 99 99 105 95 74 48 41 12 18 20 359 351 6 2 26 14 14 356 345 297 225 213 260
317 329 333 299 290 251 236 216 266 3 19 44 50 49 39 34 24 23 33 39 79 116 126 123 116 111 100 98 101 78 65 62 52 40 15 349 328 341 347 333 35 37 6 360 32 316 264 212 226
334 337 301 280 275 255 249 275 0 23 360 13 29 34 23 21 13 8 6 17 33 74 104 126 125 108 108 114 90 71 51 14 8 27 336 310 315 323 296 259 151 141 84 359 178 308 321 318 316
278 270 285 258 291 288 266 266 22 49 29 18 12 17 16 15 4 11 9 16 34 67 73 106 134 127 115 120 98 79 52 20 7 353 331 325 318 318 307 294 189 222 222 260 227 249 304 274 284
Height
1499 1500 1503 1505 1507 1506 1502 1492 1486 1486 1486 1488 1489 1490 1492 1497 1500 1511 1511 1509 1509 1509 1511 1512 1514 1515 1516 1518 1519 1520 1521 1523 1524 1525 1525 1526 1527 1528 1528 1529 1530 1530 1531 1531 1532 1532 1532 1532 1532
1498 1501 1504 1504 1504 1505 1497 1489 1488 1487 1488 1489 1490 1492 1494 1499 1502 1506 1507 1508 1509 1509 1510 1512 1513 1515 1516 1517 1519 1520 1521 1523 1524 1525 1526 1526 1527 1528 1529 1529 1530 1530 1531 1531 1532 1532 1532 1532 1533
1498 1500 1503 1500 1498 1496 1491 1486 1486 1487 1488 1490 1492 1494 1497 1502 1504 1506 1507 1508 1509 1509 1511 1512 1513 1514 1516 1517 1518 1520 1521 1522 1524 1525 1526 1526 1527 1528 1529 1529 1530 1530 1531 1531 1532 1532 1532 1533 1533
1499 1501 1501 1499 1494 1487 1486 1485 1486 1487 1489 1491 1493 1497 1500 1504 1504 1506 1507 1509 1509 1510 1511 1512 1513 1514 1515 1516 1518 1519 1520 1522 1523 1524 1525 1526 1527 1528 1528 1529 1529 1530 1531 1531 1532 1532 1532 1533 1533
1499 1499 1498 1497 1490 1487 1485 1485 1486 1487 1490 1491 1494 1497 1502 1504 1504 1506 1507 1508 1509 1510 1511 1512 1513 1514 1515 1516 1517 1518 1520 1521 1522 1524 1525 1526 1527 1527 1528 1529 1529 1530 1531 1531 1531 1532 1532 1533 1533
1498 1495 1497 1494 1488 1486 1486 1487 1487 1488 1490 1492 1494 1497 1502 1504 1504 1505 1507 1508 1509 1509 1510 1512 1513 1514 1514 1515 1516 1518 1519 1520 1521 1523 1524 1525 1526 1527 1528 1528 1529 1530 1530 1531 1531 1532 1532 1533 1533
1498 1495 1492 1489 1488 1487 1486 1487 1487 1489 1491 1493 1495 1497 1501 1503 1504 1505 1507 1508 1509 1509 1510 1511 1512 1513 1514 1515 1516 1517 1518 1519 1521 1522 1523 1524 1525 1526 1527 1528 1529 1529 1530 1531 1531 1532 1532 1533 1534
1496 1495 1491 1489 1489 1488 1486 1487 1488 1489 1491 1493 1494 1497 1500 1502 1503 1505 1506 1507 1508 1509 1510 1510 1511 1512 1513 1514 1515 1516 1517 1519 1520 1521 1522 1523 1524 1525 1526 1527 1528 1529 1530 1531 1531 1532 1532 1533 1533
1496 1498 1493 1489 1489 1488 1487 1488 1489 1490 1491 1493 1494 1496 1498 1500 1502 1504 1505 1506 1507 1509 1509 1510 1511 1511 1512 1513 1514 1515 1516 1517 1519 1520 1521 1522 1523 1524 1525 1526 1527 1528 1529 1530 1531 1532 1532 1533 1533
1496 1496 1492 1488 1487 1488 1489 1490 1491 1492 1492 1493 1495 1496 1498 1499 1501 1502 1504 1505 1506 1507 1508 1509 1510 1510 1511 1512 1513 1514 1515 1516 1517 1518 1519 1520 1521 1522 1523 1524 1526 1527 1528 1529 1530 1531 1532 1532 1533
1494 1494 1492 1490 1489 1490 1491 1491 1491 1492 1493 1493 1494 1496 1497 1499 1501 1502 1503 1504 1505 1506 1507 1508 1509 1510 1510 1511 1512 1512 1513 1515 1516 1517 1518 1519 1520 1522 1522 1523 1524 1526 1527 1528 1529 1530 1531 1532 1532
1495 1494 1493 1491 1491 1492 1492 1492 1492 1491 1493 1493 1494 1495 1497 1499 1500 1501 1502 1503 1504 1505 1506 1507 1508 1509 1509 1510 1511 1511 1512 1513 1514 1516 1517 1518 1519 1520 1521 1521 1522 1524 1525 1526 1527 1528 1530 1531 1531
1495 1494 1493 1492 1491 1492 1492 1492 1492 1492 1492 1492 1493 1494 1496 1497 1499 1500 1501 1502 1503 1503 1504 1506 1507 1508 1508 1509 1509 1510 1511 1512 1513 1514 1515 1517 1517 1518 1520 1520 1521 1522 1524 1525 1526 1527 1528 1529 1530
1494 1494 1493 1492 1491 1492 1492 1492 1492 1491 1491 1491 1492 1493 1495 1496 1498 1499 1500 1501 1501 1502 1503 1504 1505 1506 1507 1508 1508 1509 1510 1511 1511 1513 1514 1515 1516 1517 1518 1519 1520 1521 1522 1524 1525 1526 1527 1528 1529
1493 1493 1492 1490 1490 1491 1492 1492 1491 1490 1491 1491 1491 1492 1494 1495 1496 1497 1498 1499 1500 1501 1502 1503 1504 1505 1506 1506 1507 1508 1508 1509 1510 1511 1512 1513 1514 1516 1517 1517 1519 1520 1521 1522 1524 1525 1526 1527 1528
1492 1493 1494 1489 1488 1489 1494 1495 1489 1489 1489 1489 1490 1491 1492 1493 1495 1496 1497 1498 1499 1500 1501 1502 1503 1504 1505 1505 1506 1507 1507 1508 1509 1509 1511 1512 1513 1514 1515 1516 1517 1518 1519 1521 1522 1523 1524 1525 1526
1493 1496 1493 1490 1486 1487 1490 1492 1489 1488 1488 1489 1489 1490 1491 1492 1493 1495 1496 1497 1498 1499 1499 1501 1502 1503 1504 1504 1505 1506 1506 1507 1508 1508 1509 1511 1512 1513 1513 1515 1516 1517 1518 1519 1521 1522 1522 1523 1524
1496 1494 1491 1490 1486 1487 1489 1490 1489 1488 1488 1488 1489 1490 1490 1491 1493 1494 1495 1496 1497 1498 1499 1500 1501 1502 1503 1503 1504 1505 1505 1506 1507 1507 1508 1509 1510 1511 1512 1513 1514 1516 1517 1518 1519 1520 1520 1522 1523
1492 1493 1493 1489 1486 1488 1489 1489 1488 1487 1488 1488 1488 1489 1490 1491 1492 1493 1494 1495 1496 1497 1498 1499 1500 1501 1501 1502 1502 1502 1503 1504 1505 1506 1507 1508 1509 1509 1510 1511 1512 1513 1515 1516 1517 1518 1519 1520 1521
1493 1494 1492 1488 1486 1489 1489 1489 1487 1487 1488 1488 1489 1489 1489 1490 1492 1492 1493 1494 1495 1496 1497 1497 1498 1499 1500 1500 1500 1501 1502 1503 1504 1505 1506 1507 1508 1508 1509 1509 1510 1512 1513 1514 1515 1516 1517 1517 1518
1492 1494 1493 1492 1489 1487 1488 1489 1486 1486 1487 1488 1488 1488 1489 1490 1491 1492 1492 1493 1494 1495 1496 1497 1497 1498 1498 1499 1500 1500 1501 1502 1503 1504 1504 1506 1507 1508 1508 1508 1509 1510 1511 1512 1513 1514 1515 1515 1516
1495 1492 1491 1491 1493 1494 1489 1496 1488 1487 1487 1488 1488 1489 1489 1490 1491 1491 1492 1492 1494 1495 1495 1496 1496 1497 1497 1498 1499 1498 1499 1501 1502 1502 1503 1504 1505 1506 1507 1507 1508 1509 1509 1510 1511 1511 1512 1513 1513
1495 1492 1491 1490 1492 1495 1491 1495 1491 1487 1489 1489 1489 1490 1490 1490 1491 1491 1492 1492 1493 1494 1494 1495 1495 1496 1496 1497 1497 1498 1498 1500 1500 1501 1502 1503 1504 1505 1506 1506 1506 1507 1508 1508 1509 1509 1510 1510 1511
1494 1492 1490 1489 1492 1500 1491 1493 1493 1489 1488 1488 1489 1489 1490 1491 1491 1491 1492 1492 1492 1493 1493 1494 1494 1495 1496 1496 1496 1497 1497 1498 1499 1499 1500 1501 1502 1503 1504 1505 1505 1505 1506 1506 1507 1507 1508 1508 1509
1496 1500 1502 1501 1500 1497 1486 1490 1494 1487 1486 1487 1488 1489 1490 1491 1491 1491 1491 1491 1491 1491 1492 1492 1493 1494 1494 1494 1495 1495 1496 1497 1498 1498 1499 1500 1500 1501 1502 1502 1503 1503 1504 1504 1504 1505 1506 1506 1506
1499 1500 1508 1507 1502 1495 1490 1494 1492 1487 1486 1487 1488 1489 1490 1490 1490 1490 1490 1490 1490 1491 1491 1491 1492 1492 1492 1493 1493 1494 1496 1496 1496 1497 1498 1498 1499 1499 1500 1500 1501 1501 1501 1502 1502 1503 1503 1503 1504
1501 1502 1500 1504 1500 1502 1495 1490 1490 1487 1487 1487 1488 1489 1489 1490 1489 1489 1489 1489 1489 1489 1490 1491 1491 1491 1491 1492 1493 1493 1494 1495 1495 1496 1496 1497 1498 1498 1498 1498 1499 1499 1499 1500 1500 1500 1501 1501 1502
1502 1501 1504 1505 1505 1502 1495 1491 1494 1492 1490 1489 1489 1489 1490 1490 1489 1489 1489 1488 1488 1488 1489 1489 1490 1490 1490 1491 1491 1492 1493 1494 1494 1494 1494 1495 1496 1496 1496 1497 1496 1497 1498 1498 1498 1498 1498 1498 1499
1504 1505 1504 1502 1500 1502 1502 1502 1491 1491 1491 1490 1490 1490 1490 1489 1489 1488 1488 1487 1487 1487 1487 1488 1488 1489 1489 1490 1490 1490 1492 1492 1492 1493 1493 1493 1493 1494 1494 1494 1495 1495 1495 1495 1496 1496 1496 1496 1496
1503 1504 1506 1510 1506 1500 1504 1506 1492 1492 1492 1492 1491 1491 1490 1489 1489 1488 1487 1486 1486 1485 1486 1486 1486 1487 1487 1488 1488 1489 1490 1490 1490 1490 1491 1491 1491 1491 1492 1492 1492 1492 1493 1493 1493 1493 1493 1494 1493